RH
70 65 58 64 60 67 71 74 79 81 88 89 93 91 91 91 90 89 92 92 95 95 96 94 88 89 92 90 86 79 85 87 83
76 73 68 64 62 65 77 78 78 82 88 89 92 90 92 92 91 91 92 92 93 95 94 91 90 89 90 88 88 87 89 88 84
73 75 74 66 66 69 78 81 84 84 86 87 87 91 89 88 90 91 93 93 93 94 95 94 92 91 88 88 86 87 91 92 87
59 65 75 73 69 73 78 81 86 89 91 90 92 92 94 93 93 92 91 93 95 93 92 92 92 92 91 88 85 86 90 93 90
62 58 65 75 73 84 88 87 88 89 92 91 91 93 94 94 94 94 94 93 92 93 94 90 90 90 92 90 91 91 92 90 88
70 67 74 87 87 86 92 90 89 91 93 92 94 94 95 97 97 97 97 95 94 94 94 92 88 88 90 89 92 92 91 92 92
81 83 88 91 91 91 94 96 96 96 95 95 96 96 96 98 98 96 92 93 96 94 96 96 94 93 93 92 91 90 90 92 94
87 87 89 93 95 96 95 96 95 96 97 97 98 97 96 96 96 95 96 98 97 96 96 96 96 97 97 95 93 90 89 89 89
87 88 82 81 91 91 95 94 95 97 97 96 96 97 96 96 96 95 98 99 99 98 98 98 97 97 96 94 92 82 81 82 88
93 96 98 99 96 95 96 97 97 97 97 97 98 97 98 99 99 98 99 98 99 99 99 98 99 98 93 78 72 83 83 82 79
98 98 99 99 99 99 100 99 99 99 98 99 99 99 99 98 98 98 98 97 96 96 97 99 98 88 74 68 70 85 93 90 86
98 98 98 99 98 99 99 99 99 98 99 99 99 99 99 99 98 98 98 98 98 99 99 93 92 76 73 71 72 84 97 95 98
96 95 94 97 97 98 98 99 99 99 99 99 99 99 99 99 98 98 99 99 99 99 94 94 75 69 68 64 70 84 85 86 74
96 91 89 91 95 98 99 98 98 99 98 99 99 99 99 99 99 99 99 99 99 99 97 86 80 72 65 69 71 74 85 81 77
93 89 85 84 90 96 96 97 96 98 99 99 99 98 98 99 99 99 99 98 99 99 98 96 94 73 62 59 61 76 80 80 82
91 89 88 81 80 84 83 88 92 96 98 97 97 97 98 99 99 98 96 91 90 93 89 86 79 71 69 63 59 55 68 71 67
91 86 87 81 80 80 84 79 78 79 77 77 72 80 86 89 94 93 85 90 79 96 81 86 90 93 85 69 72 65 55 50 52
90 88 84 78 80 81 88 87 87 83 81 78 76 78 75 71 63 65 66 69 73 60 63 68 65 66 80 78 72 66 65 59 55
88 86 87 89 89 87 86 83 84 84 83 82 80 81 81 82 74 68 68 66 62 70 71 77 77 78 78 65 74 71 70 76 81
90 89 90 88 87 88 89 81 79 82 86 90 87 84 84 84 82 76 71 68 65 64 65 68 71 70 72 73 73 71 74 80 82
Wind_Speed
12 12 14 15 17 15 14 14 13 12 11 10 9 8 7 5 5 3 4 4 4 3 3 3 3 4 4 5 4 3 3 1 1
11 12 13 15 13 13 13 13 14 15 13 9 8 7 5 5 5 5 5 5 3 3 3 2 4 4 4 4 3 4 3 2 2
11 11 13 15 14 13 11 12 13 11 12 14 10 8 6 5 6 5 4 4 4 4 4 4 4 4 4 4 3 4 4 3 3
24 20 18 16 16 14 13 9 10 11 10 11 8 8 7 6 5 4 4 4 3 4 3 4 4 5 4 3 4 4 4 4 4
17 18 16 14 13 11 10 11 10 10 9 10 10 8 6 6 6 6 4 1 2 2 4 3 4 4 5 5 6 4 5 5 6
11 14 15 11 12 13 9 9 9 9 10 10 9 9 8 6 6 7 6 3 2 2 3 5 3 3 4 5 5 5 4 4 4
7 8 11 9 10 11 9 7 8 8 8 8 8 8 9 9 7 6 5 2 3 1 2 5 5 5 5 4 3 3 2 3 4
10 11 12 10 9 9 10 11 8 7 5 4 5 8 10 10 7 6 5 4 3 3 3 4 3 3 4 3 3 1 2 3 3
6 7 9 7 6 9 9 7 7 5 6 7 5 4 7 6 5 5 4 3 5 5 5 5 4 3 2 3 2 2 4 4 3
7 6 6 7 3 5 7 8 9 9 6 5 6 6 5 6 7 7 5 5 6 7 7 5 4 3 3 2 3 6 5 7 2
9 7 6 5 5 5 5 2 5 8 8 7 5 6 7 8 8 7 6 6 7 6 5 5 3 3 3 2 2 9 5 5 2
9 8 6 6 6 4 3 4 3 6 5 5 6 6 6 6 7 8 8 9 8 5 5 5 4 3 4 3 3 9 5 4 5
9 8 7 6 7 4 6 5 3 5 6 6 5 4 2 4 5 4 6 5 4 1 6 6 5 5 4 6 4 11 10 5 4
6 6 9 8 7 6 6 5 5 6 9 7 4 5 6 5 5 7 7 5 3 5 6 7 6 6 4 5 5 6 10 9 3
5 6 9 8 8 7 5 5 7 8 10 6 6 7 10 9 9 5 4 4 3 5 7 6 5 5 3 3 4 6 7 8 7
4 5 3 6 8 8 6 7 7 9 5 6 7 9 10 8 8 5 6 5 3 5 5 5 4 3 2 2 2 1 5 7 7
4 3 4 5 6 8 8 7 8 6 4 5 8 8 8 6 4 4 5 5 4 3 3 3 4 4 3 2 2 1 1 2 3
4 4 5 7 4 5 5 5 6 4 4 5 7 7 6 6 5 5 5 5 4 3 4 3 2 2 1 3 3 1 3 3 2
3 5 4 5 4 5 4 5 5 4 3 5 6 5 4 3 3 3 3 3 2 7 6 4 7 4 1 1 4 6 5 4 3
5 5 4 4 4 4 5 5 5 3 4 4 5 5 4 3 3 2 2 2 2 2 0 2 2 4 4 3 1 5 3 2 3
Wind_Direction
172 180 176 182 183 182 188 186 179 180 184 197 192 187 187 197 206 190 200 198 197 208 205 221 214 225 212 198 191 191 190 259 242
175 170 175 181 180 190 187 186 188 181 183 195 187 193 175 184 195 193 202 213 203 218 184 222 248 232 209 211 194 196 179 209 240
182 164 179 182 189 190 189 195 189 183 182 190 192 178 179 187 198 209 201 191 213 205 210 192 200 235 225 207 218 210 197 216 220
189 192 180 184 195 191 185 187 187 186 179 175 178 187 178 173 185 201 192 223 223 207 202 206 192 197 205 213 248 231 206 218 230
208 201 190 171 180 164 168 186 187 190 181 184 179 174 177 182 162 167 172 184 359 278 238 208 232 207 188 189 228 236 228 216 206
180 188 179 151 162 172 172 190 192 188 184 182 168 163 161 165 171 155 151 128 26 355 289 262 222 218 221 223 223 215 214 226 237
139 135 155 155 160 168 155 165 176 178 179 168 166 170 167 172 169 160 152 77 19 350 270 266 269 223 221 221 212 205 214 224 232
137 153 158 165 163 161 171 175 167 151 160 172 193 190 176 175 173 152 154 149 246 256 229 235 236 245 224 176 190 174 250 247 249
145 163 192 179 161 170 171 181 153 149 173 163 170 182 176 162 145 153 205 177 191 214 225 236 216 200 158 209 231 338 277 247 248
113 80 77 79 88 125 163 165 167 176 173 152 180 178 160 148 158 169 191 206 190 212 197 196 203 179 145 166 291 321 277 242 213
82 82 85 74 77 88 65 81 116 136 151 164 168 167 169 169 177 173 178 196 197 196 179 169 152 155 119 123 9 338 302 186 129
68 65 49 58 70 68 89 84 137 149 145 161 164 191 180 186 185 177 186 197 189 179 148 131 142 134 99 93 22 1 25 68 85
91 88 71 58 43 45 58 33 264 171 155 165 167 125 196 205 198 152 131 139 142 234 123 116 121 103 85 69 49 14 16 70 104
103 103 96 84 65 44 15 33 62 78 89 70 87 107 84 58 53 117 134 141 160 141 112 119 121 111 86 78 53 39 36 36 79
100 96 99 94 89 66 26 33 78 76 67 57 68 81 90 81 65 333 88 114 91 128 137 132 127 120 109 78 61 46 47 54 46
103 80 78 97 92 80 50 48 59 75 48 65 66 72 67 76 72 40 31 58 86 108 124 133 129 138 140 143 117 61 49 44 43
92 88 117 78 92 90 79 58 67 69 71 81 82 84 87 93 84 61 46 24 38 51 91 126 143 147 172 175 184 165 42 44 28
149 132 70 75 87 91 107 112 93 79 75 76 76 78 81 82 83 79 76 60 12 51 38 358 119 124 192 170 195 184 102 61 46
93 99 89 94 75 102 104 80 81 84 68 94 104 90 78 78 84 79 91 108 97 59 77 58 53 53 34 107 71 112 101 86 82
115 99 89 84 107 105 104 94 89 77 72 61 58 88 100 100 100 124 125 97 87 43 61 111 113 63 61 46 165 153 135 93 21